Time,TemperatureF,DewpointF,PressureIn,WindDirection,WindDirectionDegrees,WindSpeedMPH,WindSpeedGustMPH,Humidity,HourlyPrecipIn,Conditions,Clouds,dailyrainin,SolarRadiationWatts/m^2,SoftwareType,DateUTC
2013-05-01 00:00:00,60.4,52.8,30.09,SSW,199,0.0,3.0,76,0.00,,OVC100,0.00,0.00,VWS V14.01,2013-05-01 04:00:00,
2013-05-01 00:01:00,60.4,52.8,30.09,SSW,199,0.0,0.0,76,0.00,,CLR,0.00,0.00,VWS V14.01,2013-05-01 04:01:00,
2013-05-01 00:05:00,60.4,53.2,30.09,SSW,199,0.0,1.0,77,0.00,,OVC100,0.00,0.00,VWS V14.01,2013-05-01 04:05:00,
2013-05-01 00:06:00,60.4,53.2,30.09,SSW,199,0.0,0.0,77,0.00,,CLR,0.00,0.00,VWS V14.01,2013-05-01 04:06:00,
2013-05-01 00:10:00,60.4,53.2,30.09,SSW,199,1.0,3.0,77,0.00,,OVC100,0.00,0.00,VWS V14.01,2013-05-01 04:10:00,
2013-05-01 00:11:00,60.4,52.8,30.09,SSW,199,0.0,1.0,76,0.00,,CLR,0.00,0.00,VWS V14.01,2013-05-01 04:11:00,
2013-05-01 00:15:00,60.4,52.8,30.09,SSW,199,0.0,3.0,76,0.00,,OVC100,0.00,0.00,VWS V14.01,2013-05-01 04:15:00,
2013-05-01 00:16:00,60.4,53.2,30.09,SSW,199,0.0,1.0,77,0.00,,CLR,0.00,0.00,VWS V14.01,2013-05-01 04:16:00,
2013-05-01 00:20:00,60.4,52.8,30.09,SSW,199,1.0,3.0,76,0.00,,OVC100,0.00,0.00,VWS V14.01,2013-05-01 04:20:00,
2013-05-01 00:21:00,60.4,53.2,30.09,SSW,199,0.0,2.0,77,0.00,,CLR,0.00,0.00,VWS V14.01,2013-05-01 04:21:00,
2013-05-01 00:25:00,60.4,52.8,30.09,SSW,199,0.0,2.0,76,0.00,,OVC100,0.00,0.00,VWS V14.01,2013-05-01 04:25:00,
2013-05-01 00:26:00,60.4,52.8,30.09,SSW,199,0.0,2.0,76,0.00,,CLR,0.00,0.00,VWS V14.01,2013-05-01 04:26:00,
2013-05-01 00:30:00,60.4,52.8,30.09,SSW,199,1.0,3.0,76,0.00,,OVC100,0.00,0.00,VWS V14.01,2013-05-01 04:30:00,
2013-05-01 00:31:00,60.4,52.8,30.09,SSW,199,2.0,3.0,76,0.00,,CLR,0.00,0.00,VWS V14.01,2013-05-01 04:31:00,
2013-05-01 00:35:00,60.4,52.8,30.09,SSW,199,1.0,3.0,76,0.00,,OVC100,0.00,0.00,VWS V14.01,2013-05-01 04:35:00,
2013-05-01 00:36:00,60.4,52.8,30.09,SSW,199,0.0,2.0,76,0.00,,CLR,0.00,0.00,VWS V14.01,2013-05-01 04:36:00,
2013-05-01 00:40:00,60.4,52.8,30.09,SSW,199,2.0,2.0,76,0.00,,OVC100,0.00,0.00,VWS V14.01,2013-05-01 04:40:00,
2013-05-01 00:41:00,60.4,52.8,30.09,SSW,199,1.0,3.0,76,0.00,,CLR,0.00,0.00,VWS V14.01,2013-05-01 04:41:00,
2013-05-01 00:45:00,60.4,52.8,30.10,SSW,199,1.0,3.0,76,0.00,,OVC100,0.00,0.00,VWS V14.01,2013-05-01 04:45:00,
2013-05-01 00:46:00,60.4,52.8,30.10,SSW,199,2.0,3.0,76,0.00,,CLR,0.00,0.00,VWS V14.01,2013-05-01 04:46:00,
2013-05-01 00:50:00,60.2,52.6,30.10,SSW,199,2.0,3.0,76,0.00,,OVC100,0.00,0.00,VWS V14.01,2013-05-01 04:50:00,
2013-05-01 00:51:00,60.2,52.6,30.10,SSW,199,1.0,2.0,76,0.00,,CLR,0.00,0.00,VWS V14.01,2013-05-01 04:51:00,
2013-05-01 00:55:00,60.2,52.6,30.10,SSW,199,3.0,4.0,76,0.00,,OVC100,0.00,0.00,VWS V14.01,2013-05-01 04:55:00,
2013-05-01 00:56:00,60.2,52.6,30.10,SSW,199,2.0,3.0,76,0.00,,CLR,0.00,0.00,VWS V14.01,2013-05-01 04:56:00,
2013-05-01 01:00:00,60.4,52.8,30.10,SSW,199,0.0,4.0,76,0.00,,OVC100,0.00,0.00,VWS V14.01,2013-05-01 05:00:00,
2013-05-01 01:01:00,60.4,52.8,30.10,SSW,199,0.0,0.0,76,0.00,,CLR,0.00,0.00,VWS V14.01,2013-05-01 05:01:00,
2013-05-01 01:05:00,60.2,52.3,30.10,SSW,199,0.0,0.0,75,0.00,,OVC100,0.00,0.00,VWS V14.01,2013-05-01 05:05:00,
2013-05-01 01:06:00,60.2,52.3,30.10,SSW,199,0.0,1.0,75,0.00,,CLR,0.00,0.00,VWS V14.01,2013-05-01 05:06:00,
2013-05-01 01:10:00,59.9,52.3,30.10,SSW,199,0.0,1.0,76,0.00,,OVC100,0.00,0.00,VWS V14.01,2013-05-01 05:10:00,
2013-05-01 01:11:00,59.9,52.3,30.10,SSW,199,0.0,0.0,76,0.00,,CLR,0.00,0.00,VWS V14.01,2013-05-01 05:11:00,
2013-05-01 01:15:00,59.6,52.0,30.10,SSW,199,2.0,2.0,76,0.00,,OVC100,0.00,0.00,VWS V14.01,2013-05-01 05:15:00,
2013-05-01 01:16:00,59.6,52.4,30.10,SSW,199,0.0,2.0,77,0.00,,CLR,0.00,0.00,VWS V14.01,2013-05-01 05:16:00,
2013-05-01 01:20:00,59.5,52.3,30.10,SSW,199,1.0,2.0,77,0.00,,OVC100,0.00,0.00,VWS V14.01,2013-05-01 05:20:00,
2013-05-01 01:21:00,59.5,52.3,30.10,SSW,199,0.0,1.0,77,0.00,,CLR,0.00,0.00,VWS V14.01,2013-05-01 05:21:00,
2013-05-01 01:25:00,59.3,52.1,30.10,SSW,199,0.0,1.0,77,0.00,,OVC100,0.00,0.00,VWS V14.01,2013-05-01 05:25:00,
2013-05-01 01:26:00,59.3,52.1,30.10,SSW,199,0.0,0.0,77,0.00,,CLR,0.00,0.00,VWS V14.01,2013-05-01 05:26:00,
2013-05-01 01:30:00,59.0,52.2,30.11,SSW,199,1.0,3.0,78,0.00,,OVC100,0.00,0.00,VWS V14.01,2013-05-01 05:30:00,
2013-05-01 01:31:00,59.0,52.2,30.11,SSW,199,2.0,2.0,78,0.00,,CLR,0.00,0.00,VWS V14.01,2013-05-01 05:31:00,
2013-05-01 01:35:00,59.0,52.2,30.11,SSW,199,1.0,3.0,78,0.00,,OVC100,0.00,0.00,VWS V14.01,2013-05-01 05:35:00,
2013-05-01 01:36:00,59.0,52.2,30.11,SSW,199,0.0,1.0,78,0.00,,CLR,0.00,0.00,VWS V14.01,2013-05-01 05:36:00,
2013-05-01 01:40:00,59.0,52.5,30.11,SSW,199,0.0,2.0,79,0.00,,OVC100,0.00,0.00,VWS V14.01,2013-05-01 05:40:00,
2013-05-01 01:41:00,59.0,52.5,30.11,SSW,199,0.0,2.0,79,0.00,,CLR,0.00,0.00,VWS V14.01,2013-05-01 05:41:00,
2013-05-01 01:45:00,58.9,52.4,30.11,SSW,199,0.0,2.0,79,0.00,,OVC100,0.00,0.00,VWS V14.01,2013-05-01 05:45:00,
2013-05-01 01:46:00,58.9,52.4,30.11,SSW,199,0.0,0.0,79,0.00,,CLR,0.00,0.00,VWS V14.01,2013-05-01 05:46:00,
2013-05-01 01:50:00,58.7,52.2,30.11,SSW,199,0.0,0.0,79,0.00,,OVC100,0.00,0.00,VWS V14.01,2013-05-01 05:50:00,
2013-05-01 01:51:00,58.7,52.2,30.11,SSW,199,0.0,0.0,79,0.00,,CLR,0.00,0.00,VWS V14.01,2013-05-01 05:51:00,
2013-05-01 01:55:00,58.4,51.9,30.11,SSW,199,0.0,1.0,79,0.00,,OVC100,0.00,0.00,VWS V14.01,2013-05-01 05:55:00,
2013-05-01 01:56:00,58.4,52.3,30.11,SSW,199,0.0,1.0,80,0.00,,CLR,0.00,0.00,VWS V14.01,2013-05-01 05:56:00,
2013-05-01 02:00:00,58.3,52.2,30.11,SSW,199,0.0,1.0,80,0.00,,OVC100,0.00,0.00,VWS V14.01,2013-05-01 06:00:00,
2013-05-01 02:01:00,58.1,52.0,30.11,SSW,199,0.0,0.0,80,0.00,,CLR,0.00,0.00,VWS V14.01,2013-05-01 06:01:00,
2013-05-01 02:05:00,58.0,51.9,30.11,SSW,199,0.0,0.0,80,0.00,,OVC100,0.00,0.00,VWS V14.01,2013-05-01 06:05:00,
2013-05-01 02:06:00,57.8,51.7,30.11,SSW,199,0.0,0.0,80,0.00,,CLR,0.00,0.00,VWS V14.01,2013-05-01 06:06:00,
2013-05-01 02:10:00,57.6,51.8,30.11,SSW,199,0.0,2.0,81,0.00,,OVC100,0.00,0.00,VWS V14.01,2013-05-01 06:10:00,
2013-05-01 02:11:00,57.6,51.8,30.11,SSW,199,0.0,1.0,81,0.00,,CLR,0.00,0.00,VWS V14.01,2013-05-01 06:11:00,
2013-05-01 02:15:00,57.5,52.1,30.10,SSW,199,0.0,1.0,82,0.00,,OVC100,0.00,0.00,VWS V14.01,2013-05-01 06:15:00,
2013-05-01 02:16:00,57.5,52.1,30.10,SSW,199,0.0,0.0,82,0.00,,CLR,0.00,0.00,VWS V14.01,2013-05-01 06:16:00,
2013-05-01 02:20:00,57.3,51.9,30.10,SSW,199,0.0,0.0,82,0.00,,OVC100,0.00,0.00,VWS V14.01,2013-05-01 06:20:00,
2013-05-01 02:21:00,57.3,51.9,30.10,SSW,199,0.0,0.0,82,0.00,,CLR,0.00,0.00,VWS V14.01,2013-05-01 06:21:00,
2013-05-01 02:25:00,57.3,52.2,30.10,SSW,199,0.0,0.0,83,0.00,,OVC100,0.00,0.00,VWS V14.01,2013-05-01 06:25:00,
2013-05-01 02:26:00,57.2,52.1,30.10,SSW,199,0.0,0.0,83,0.00,,CLR,0.00,0.00,VWS V14.01,2013-05-01 06:26:00,
2013-05-01 02:30:00,57.2,52.1,30.10,SSW,199,0.0,0.0,83,0.00,,OVC100,0.00,0.00,VWS V14.01,2013-05-01 06:30:00,
2013-05-01 02:31:00,57.2,52.1,30.10,SSW,199,0.0,0.0,83,0.00,,CLR,0.00,0.00,VWS V14.01,2013-05-01 06:31:00,
2013-05-01 02:35:00,56.9,51.8,30.10,SSW,199,0.0,0.0,83,0.00,,OVC100,0.00,0.00,VWS V14.01,2013-05-01 06:35:00,
2013-05-01 02:36:00,56.9,51.8,30.10,SSW,199,0.0,0.0,83,0.00,,CLR,0.00,0.00,VWS V14.01,2013-05-01 06:36:00,
2013-05-01 02:40:00,56.7,51.6,30.10,SSW,199,0.0,0.0,83,0.00,,OVC100,0.00,0.00,VWS V14.01,2013-05-01 06:40:00,
2013-05-01 02:41:00,56.6,51.5,30.10,SSW,199,0.0,0.0,83,0.00,,CLR,0.00,0.00,VWS V14.01,2013-05-01 06:41:00,
2013-05-01 02:45:00,56.5,51.7,30.11,SSW,199,0.0,0.0,84,0.00,,OVC100,0.00,0.00,VWS V14.01,2013-05-01 06:45:00,
2013-05-01 02:46:00,56.3,51.5,30.11,SSW,199,0.0,0.0,84,0.00,,CLR,0.00,0.00,VWS V14.01,2013-05-01 06:46:00,
2013-05-01 02:50:00,56.3,51.9,30.11,SSW,199,0.0,0.0,85,0.00,,OVC100,0.00,0.00,VWS V14.01,2013-05-01 06:50:00,
2013-05-01 02:51:00,56.3,51.9,30.11,SSW,199,0.0,0.0,85,0.00,,CLR,0.00,0.00,VWS V14.01,2013-05-01 06:51:00,
2013-05-01 02:55:00,56.2,51.8,30.11,SSW,199,0.0,0.0,85,0.00,,OVC100,0.00,0.00,VWS V14.01,2013-05-01 06:55:00,
2013-05-01 02:56:00,56.2,51.8,30.11,SSW,199,0.0,0.0,85,0.00,,CLR,0.00,0.00,VWS V14.01,2013-05-01 06:56:00,
2013-05-01 03:00:00,56.2,52.1,30.11,SSW,199,0.0,0.0,86,0.00,,OVC100,0.00,0.00,VWS V14.01,2013-05-01 07:00:00,
2013-05-01 03:01:00,56.2,52.1,30.11,SSW,199,1.0,1.0,86,0.00,,CLR,0.00,0.00,VWS V14.01,2013-05-01 07:01:00,
2013-05-01 03:05:00,56.2,52.1,30.11,SSW,199,0.0,2.0,86,0.00,,OVC100,0.00,0.00,VWS V14.01,2013-05-01 07:05:00,
2013-05-01 03:06:00,56.0,51.9,30.11,SSW,199,0.0,0.0,86,0.00,,CLR,0.00,0.00,VWS V14.01,2013-05-01 07:06:00,
2013-05-01 03:10:00,56.0,51.9,30.11,SSW,199,0.0,0.0,86,0.00,,OVC100,0.00,0.00,VWS V14.01,2013-05-01 07:10:00,
2013-05-01 03:11:00,56.0,52.2,30.11,SSW,199,0.0,0.0,87,0.00,,CLR,0.00,0.00,VWS V14.01,2013-05-01 07:11:00,
2013-05-01 03:15:00,56.0,52.2,30.11,SSW,199,0.0,1.0,87,0.00,,OVC100,0.00,0.00,VWS V14.01,2013-05-01 07:15:00,
2013-05-01 03:16:00,55.9,52.1,30.11,SSW,199,0.0,0.0,87,0.00,,CLR,0.00,0.00,VWS V14.01,2013-05-01 07:16:00,
2013-05-01 03:20:00,55.9,52.1,30.11,SSW,199,0.0,0.0,87,0.00,,OVC100,0.00,0.00,VWS V14.01,2013-05-01 07:20:00,
2013-05-01 03:21:00,55.9,52.1,30.11,SSW,199,0.0,0.0,87,0.00,,CLR,0.00,0.00,VWS V14.01,2013-05-01 07:21:00,
2013-05-01 03:25:00,55.7,51.9,30.11,SSW,199,0.0,0.0,87,0.00,,OVC100,0.00,0.00,VWS V14.01,2013-05-01 07:25:00,
2013-05-01 03:26:00,55.6,51.8,30.11,SSW,199,0.0,0.0,87,0.00,,CLR,0.00,0.00,VWS V14.01,2013-05-01 07:26:00,
2013-05-01 03:30:00,55.4,51.6,30.11,SSW,199,0.0,0.0,87,0.00,,OVC100,0.00,0.00,VWS V14.01,2013-05-01 07:30:00,
2013-05-01 03:31:00,55.4,51.6,30.11,SSW,199,0.0,0.0,87,0.00,,CLR,0.00,0.00,VWS V14.01,2013-05-01 07:31:00,
2013-05-01 03:35:00,55.3,51.8,30.11,SSW,199,0.0,0.0,88,0.00,,OVC100,0.00,0.00,VWS V14.01,2013-05-01 07:35:00,
2013-05-01 03:36:00,55.1,51.6,30.11,SSW,199,0.0,0.0,88,0.00,,CLR,0.00,0.00,VWS V14.01,2013-05-01 07:36:00,
2013-05-01 03:40:00,55.0,51.5,30.11,SSW,199,0.0,0.0,88,0.00,,OVC100,0.00,0.00,VWS V14.01,2013-05-01 07:40:00,
2013-05-01 03:41:00,55.0,51.5,30.11,SSW,199,0.0,0.0,88,0.00,,CLR,0.00,0.00,VWS V14.01,2013-05-01 07:41:00,
2013-05-01 03:45:00,54.8,51.3,30.11,SSW,199,0.0,0.0,88,0.00,,OVC100,0.00,0.00,VWS V14.01,2013-05-01 07:45:00,
2013-05-01 03:46:00,54.8,51.6,30.11,SSW,199,0.0,0.0,89,0.00,,CLR,0.00,0.00,VWS V14.01,2013-05-01 07:46:00,
2013-05-01 03:50:00,54.8,51.6,30.11,SSW,199,0.0,0.0,89,0.00,,OVC100,0.00,0.00,VWS V14.01,2013-05-01 07:50:00,
2013-05-01 03:51:00,54.8,51.6,30.11,SSW,199,0.0,0.0,89,0.00,,CLR,0.00,0.00,VWS V14.01,2013-05-01 07:51:00,
2013-05-01 03:55:00,54.8,51.6,30.11,SSW,199,0.0,0.0,89,0.00,,OVC100,0.00,0.00,VWS V14.01,2013-05-01 07:55:00,
2013-05-01 03:56:00,54.8,51.6,30.11,SSW,199,0.0,0.0,89,0.00,,CLR,0.00,0.00,VWS V14.01,2013-05-01 07:56:00,
2013-05-01 04:00:00,54.7,51.5,30.12,SSW,199,0.0,0.0,89,0.00,,OVC100,0.00,0.00,VWS V14.01,2013-05-01 08:00:00,
2013-05-01 04:01:00,54.7,51.5,30.12,SSW,199,0.0,0.0,89,0.00,,CLR,0.00,0.00,VWS V14.01,2013-05-01 08:01:00,
2013-05-01 04:05:00,54.7,51.8,30.12,SSW,199,2.0,2.0,90,0.00,,OVC100,0.00,0.00,VWS V14.01,2013-05-01 08:05:00,
2013-05-01 04:06:00,54.7,51.8,30.12,SSW,199,0.0,2.0,90,0.00,,CLR,0.00,0.00,VWS V14.01,2013-05-01 08:06:00,
2013-05-01 04:10:00,54.8,51.9,30.12,SSW,199,0.0,2.0,90,0.00,,OVC100,0.00,0.00,VWS V14.01,2013-05-01 08:10:00,
2013-05-01 04:11:00,54.8,51.9,30.12,SSW,199,1.0,1.0,90,0.00,,CLR,0.00,0.00,VWS V14.01,2013-05-01 08:11:00,
2013-05-01 04:15:00,54.8,51.9,30.12,SSW,199,0.0,1.0,90,0.00,,OVC100,0.00,0.00,VWS V14.01,2013-05-01 08:15:00,
2013-05-01 04:16:00,54.8,51.9,30.12,SSW,199,0.0,0.0,90,0.00,,CLR,0.00,0.00,VWS V14.01,2013-05-01 08:16:00,
2013-05-01 04:20:00,54.7,51.8,30.12,SSW,199,0.0,0.0,90,0.00,,OVC100,0.00,0.00,VWS V14.01,2013-05-01 08:20:00,
2013-05-01 04:21:00,54.5,51.6,30.12,SSW,199,0.0,0.0,90,0.00,,CLR,0.00,0.00,VWS V14.01,2013-05-01 08:21:00,
2013-05-01 04:25:00,54.4,51.5,30.12,SSW,199,0.0,1.0,90,0.00,,OVC100,0.00,0.00,VWS V14.01,2013-05-01 08:25:00,
2013-05-01 04:26:00,54.4,51.5,30.12,SSW,199,0.0,0.0,90,0.00,,CLR,0.00,0.00,VWS V14.01,2013-05-01 08:26:00,
2013-05-01 04:30:00,54.2,51.3,30.13,SSW,199,0.0,0.0,90,0.00,,OVC100,0.00,0.00,VWS V14.01,2013-05-01 08:30:00,
2013-05-01 04:31:00,54.2,51.3,30.13,SSW,199,0.0,0.0,90,0.00,,CLR,0.00,0.00,VWS V14.01,2013-05-01 08:31:00,
2013-05-01 04:35:00,54.1,51.5,30.13,SSW,199,0.0,0.0,91,0.00,,OVC100,0.00,0.00,VWS V14.01,2013-05-01 08:35:00,
2013-05-01 04:36:00,54.1,51.2,30.13,SSW,199,0.0,0.0,90,0.00,,CLR,0.00,0.00,VWS V14.01,2013-05-01 08:36:00,
2013-05-01 04:40:00,54.1,51.5,30.13,SSW,199,0.0,0.0,91,0.00,,OVC100,0.00,0.00,VWS V14.01,2013-05-01 08:40:00,
2013-05-01 04:41:00,54.1,51.5,30.13,SSW,199,0.0,0.0,91,0.00,,CLR,0.00,0.00,VWS V14.01,2013-05-01 08:41:00,
2013-05-01 04:45:00,54.2,51.6,30.13,SSW,199,0.0,0.0,91,0.00,,OVC100,0.00,0.00,VWS V14.01,2013-05-01 08:45:00,
2013-05-01 04:46:00,54.1,51.5,30.13,SSW,199,0.0,0.0,91,0.00,,CLR,0.00,0.00,VWS V14.01,2013-05-01 08:46:00,
2013-05-01 04:50:00,54.1,51.5,30.13,SSW,199,0.0,0.0,91,0.00,,OVC100,0.00,0.00,VWS V14.01,2013-05-01 08:50:00,
2013-05-01 04:51:00,53.9,51.3,30.13,SSW,199,0.0,0.0,91,0.00,,CLR,0.00,0.00,VWS V14.01,2013-05-01 08:51:00,
2013-05-01 04:55:00,53.9,51.3,30.13,SSW,199,0.0,0.0,91,0.00,,OVC100,0.00,0.00,VWS V14.01,2013-05-01 08:55:00,
2013-05-01 04:56:00,53.9,51.3,30.13,SSW,199,0.0,0.0,91,0.00,,CLR,0.00,0.00,VWS V14.01,2013-05-01 08:56:00,
2013-05-01 05:00:00,53.8,51.2,30.14,SSW,199,0.0,2.0,91,0.00,,OVC100,0.00,0.00,VWS V14.01,2013-05-01 09:00:00,
2013-05-01 05:01:00,53.8,51.2,30.14,SSW,199,0.0,0.0,91,0.00,,CLR,0.00,0.00,VWS V14.01,2013-05-01 09:01:00,
2013-05-01 05:05:00,53.6,51.0,30.14,SSW,199,0.0,1.0,91,0.00,,OVC100,0.00,0.00,VWS V14.01,2013-05-01 09:05:00,
2013-05-01 05:06:00,53.6,51.0,30.14,SSW,199,0.0,0.0,91,0.00,,CLR,0.00,0.00,VWS V14.01,2013-05-01 09:06:00,
2013-05-01 05:10:00,53.6,51.3,30.14,SSW,199,0.0,3.0,92,0.00,,OVC100,0.00,0.00,VWS V14.01,2013-05-01 09:10:00,
2013-05-01 05:11:00,53.6,51.3,30.14,SSW,199,1.0,2.0,92,0.00,,CLR,0.00,0.00,VWS V14.01,2013-05-01 09:11:00,
2013-05-01 05:15:00,53.8,51.5,30.14,SSW,199,1.0,2.0,92,0.00,,OVC100,0.00,0.00,VWS V14.01,2013-05-01 09:15:00,
2013-05-01 05:16:00,53.9,51.6,30.14,SSW,199,2.0,2.0,92,0.00,,CLR,0.00,0.00,VWS V14.01,2013-05-01 09:16:00,
2013-05-01 05:20:00,53.9,51.3,30.14,SSW,199,0.0,2.0,91,0.00,,OVC100,0.00,0.00,VWS V14.01,2013-05-01 09:20:00,
2013-05-01 05:21:00,53.9,51.3,30.14,SSW,199,2.0,4.0,91,0.00,,CLR,0.00,0.00,VWS V14.01,2013-05-01 09:21:00,
2013-05-01 05:25:00,53.9,51.3,30.14,SSW,199,0.0,4.0,91,0.00,,OVC100,0.00,0.00,VWS V14.01,2013-05-01 09:25:00,
2013-05-01 05:26:00,53.8,51.2,30.14,SSW,199,0.0,0.0,91,0.00,,CLR,0.00,0.00,VWS V14.01,2013-05-01 09:26:00,
2013-05-01 05:30:00,53.8,51.2,30.14,SSW,199,0.0,0.0,91,0.00,,OVC100,0.00,0.00,VWS V14.01,2013-05-01 09:30:00,
2013-05-01 05:31:00,53.8,51.2,30.14,SSW,199,0.0,0.0,91,0.00,,CLR,0.00,0.00,VWS V14.01,2013-05-01 09:31:00,
2013-05-01 05:35:00,53.6,51.0,30.14,SSW,199,0.0,1.0,91,0.00,,OVC100,0.00,0.00,VWS V14.01,2013-05-01 09:35:00,
2013-05-01 05:36:00,53.6,51.0,30.14,SSW,199,0.0,0.0,91,0.00,,CLR,0.00,0.00,VWS V14.01,2013-05-01 09:36:00,
2013-05-01 05:40:00,53.6,51.0,30.14,SSW,199,0.0,1.0,91,0.00,,OVC100,0.00,0.00,VWS V14.01,2013-05-01 09:40:00,
2013-05-01 05:41:00,53.6,51.0,30.14,SSW,199,0.0,0.0,91,0.00,,CLR,0.00,0.00,VWS V14.01,2013-05-01 09:41:00,
2013-05-01 05:45:00,53.5,50.9,30.14,SSW,199,0.0,0.0,91,0.00,,OVC100,0.00,0.00,VWS V14.01,2013-05-01 09:45:00,
2013-05-01 05:46:00,53.5,50.9,30.14,SSW,199,0.0,0.0,91,0.00,,CLR,0.00,0.00,VWS V14.01,2013-05-01 09:46:00,
2013-05-01 05:50:00,53.5,50.9,30.14,SSW,199,0.0,1.0,91,0.00,,OVC100,0.00,0.00,VWS V14.01,2013-05-01 09:50:00,
2013-05-01 05:51:00,53.5,50.9,30.14,SSW,199,0.0,0.0,91,0.00,,CLR,0.00,0.00,VWS V14.01,2013-05-01 09:51:00,
2013-05-01 05:55:00,53.6,51.0,30.14,SSW,199,0.0,1.0,91,0.00,,OVC100,0.00,0.00,VWS V14.01,2013-05-01 09:55:00,
2013-05-01 05:56:00,53.6,51.0,30.14,SSW,199,0.0,0.0,91,0.00,,CLR,0.00,0.00,VWS V14.01,2013-05-01 09:56:00,
2013-05-01 06:00:00,53.6,51.0,30.15,SSW,199,0.0,1.0,91,0.00,,OVC100,0.00,0.00,VWS V14.01,2013-05-01 10:00:00,
2013-05-01 06:01:00,53.8,51.2,30.15,SSW,199,0.0,0.0,91,0.00,,CLR,0.00,0.00,VWS V14.01,2013-05-01 10:01:00,
2013-05-01 06:05:00,53.9,51.3,30.15,SSW,199,1.0,2.0,91,0.00,,OVC100,0.00,0.00,VWS V14.01,2013-05-01 10:05:00,
2013-05-01 06:06:00,53.9,51.3,30.15,SSW,199,0.0,1.0,91,0.00,,CLR,0.00,0.00,VWS V14.01,2013-05-01 10:06:00,
2013-05-01 06:10:00,54.2,51.6,30.15,SSW,199,0.0,2.0,91,0.00,,OVC100,0.00,0.00,VWS V14.01,2013-05-01 10:10:00,
2013-05-01 06:11:00,54.4,51.8,30.15,SSW,199,0.0,0.0,91,0.00,,CLR,0.00,0.00,VWS V14.01,2013-05-01 10:11:00,
2013-05-01 06:15:00,54.5,51.6,30.16,SSW,199,4.0,4.0,90,0.00,,OVC100,0.00,0.00,VWS V14.01,2013-05-01 10:15:00,
2013-05-01 06:16:00,54.5,51.6,30.16,SSW,199,1.0,4.0,90,0.00,,CLR,0.00,0.00,VWS V14.01,2013-05-01 10:16:00,
2013-05-01 06:20:00,54.8,51.9,30.16,SSW,199,1.0,5.0,90,0.00,,OVC100,0.00,0.00,VWS V14.01,2013-05-01 10:20:00,
2013-05-01 06:21:00,54.8,51.9,30.16,SSW,199,0.0,1.0,90,0.00,,CLR,0.00,0.00,VWS V14.01,2013-05-01 10:21:00,
2013-05-01 06:25:00,55.0,51.8,30.16,SSW,199,0.0,3.0,89,0.00,,OVC100,0.00,0.00,VWS V14.01,2013-05-01 10:25:00,
2013-05-01 06:26:00,55.1,51.9,30.16,SSW,199,0.0,1.0,89,0.00,,CLR,0.00,0.00,VWS V14.01,2013-05-01 10:26:00,
2013-05-01 06:30:00,55.3,51.8,30.16,SSW,199,0.0,4.0,88,0.00,,OVC100,0.00,0.00,VWS V14.01,2013-05-01 10:30:00,
2013-05-01 06:31:00,55.3,51.8,30.16,SSW,199,1.0,3.0,88,0.00,,CLR,0.00,0.00,VWS V14.01,2013-05-01 10:31:00,
2013-05-01 06:35:00,55.6,51.8,30.16,SSW,199,0.0,4.0,87,0.00,,OVC100,0.00,5.00,VWS V14.01,2013-05-01 10:35:00,
2013-05-01 06:36:00,55.6,51.8,30.16,SSW,199,0.0,2.0,87,0.00,,CLR,0.00,7.00,VWS V14.01,2013-05-01 10:36:00,
2013-05-01 06:40:00,55.6,51.5,30.16,SSW,199,0.0,3.0,86,0.00,,OVC100,0.00,9.00,VWS V14.01,2013-05-01 10:40:00,
2013-05-01 06:41:00,55.6,51.5,30.16,SSW,199,0.0,0.0,86,0.00,,CLR,0.00,11.00,VWS V14.01,2013-05-01 10:41:00,
2013-05-01 06:45:00,55.4,51.3,30.17,SSW,199,0.0,2.0,86,0.00,,OVC100,0.00,14.00,VWS V14.01,2013-05-01 10:45:00,
2013-05-01 06:46:00,55.4,51.3,30.17,SSW,199,0.0,0.0,86,0.00,,CLR,0.00,16.00,VWS V14.01,2013-05-01 10:46:00,
2013-05-01 06:50:00,55.4,51.3,30.17,SSW,199,2.0,3.0,86,0.00,,OVC100,0.00,21.00,VWS V14.01,2013-05-01 10:50:00,
2013-05-01 06:51:00,55.4,51.3,30.17,SSW,199,2.0,2.0,86,0.00,,CLR,0.00,21.00,VWS V14.01,2013-05-01 10:51:00,
2013-05-01 06:55:00,55.4,51.0,30.17,SSW,199,1.0,2.0,85,0.00,,OVC100,0.00,32.00,VWS V14.01,2013-05-01 10:55:00,
2013-05-01 06:56:00,55.6,51.2,30.17,SSW,199,2.0,2.0,85,0.00,,CLR,0.00,32.00,VWS V14.01,2013-05-01 10:56:00,
2013-05-01 07:00:00,55.6,51.2,30.17,SSW,199,1.0,3.0,85,0.00,,OVC100,0.00,40.00,VWS V14.01,2013-05-01 11:00:00,
2013-05-01 07:01:00,55.7,51.3,30.17,SSW,199,0.0,1.0,85,0.00,,CLR,0.00,42.00,VWS V14.01,2013-05-01 11:01:00,
2013-05-01 07:05:00,55.7,51.3,30.17,SSW,199,0.0,1.0,85,0.00,,OVC100,0.00,51.00,VWS V14.01,2013-05-01 11:05:00,
2013-05-01 07:06:00,55.7,51.3,30.17,SSW,199,0.0,0.0,85,0.00,,CLR,0.00,53.00,VWS V14.01,2013-05-01 11:06:00,
2013-05-01 07:10:00,56.0,51.2,30.17,SSW,199,0.0,3.0,84,0.00,,OVC100,0.00,63.00,VWS V14.01,2013-05-01 11:10:00,
2013-05-01 07:11:00,56.0,51.2,30.17,SSW,199,1.0,2.0,84,0.00,,CLR,0.00,65.00,VWS V14.01,2013-05-01 11:11:00,
2013-05-01 07:15:00,56.2,51.4,30.19,SSW,199,1.0,2.0,84,0.00,,OVC100,0.00,76.00,VWS V14.01,2013-05-01 11:15:00,
2013-05-01 07:16:00,56.2,51.4,30.19,SSW,199,0.0,1.0,84,0.00,,CLR,0.00,77.00,VWS V14.01,2013-05-01 11:16:00,
2013-05-01 07:20:00,56.5,51.7,30.19,SSW,199,1.0,3.0,84,0.00,,OVC100,0.00,90.00,VWS V14.01,2013-05-01 11:20:00,
2013-05-01 07:21:00,56.5,51.7,30.19,SSW,199,1.0,3.0,84,0.00,,CLR,0.00,91.00,VWS V14.01,2013-05-01 11:21:00,
2013-05-01 07:25:00,56.7,51.6,30.19,SSW,199,3.0,3.0,83,0.00,,OVC100,0.00,102.00,VWS V14.01,2013-05-01 11:25:00,
2013-05-01 07:26:00,56.7,51.6,30.19,SSW,199,1.0,3.0,83,0.00,,CLR,0.00,102.00,VWS V14.01,2013-05-01 11:26:00,
2013-05-01 07:30:00,57.2,52.1,30.19,SSW,199,1.0,4.0,83,0.00,,OVC100,0.00,116.00,VWS V14.01,2013-05-01 11:30:00,
2013-05-01 07:31:00,57.3,52.2,30.19,SSW,199,2.0,2.0,83,0.00,,CLR,0.00,116.00,VWS V14.01,2013-05-01 11:31:00,
2013-05-01 07:35:00,57.6,52.2,30.19,SSW,199,0.0,4.0,82,0.00,,OVC100,0.00,128.00,VWS V14.01,2013-05-01 11:35:00,
2013-05-01 07:36:00,57.8,52.3,30.19,SSW,199,0.0,0.0,82,0.00,,CLR,0.00,132.00,VWS V14.01,2013-05-01 11:36:00,
2013-05-01 07:40:00,58.3,52.5,30.19,SSW,199,0.0,4.0,81,0.00,,OVC100,0.00,144.00,VWS V14.01,2013-05-01 11:40:00,
2013-05-01 07:41:00,58.3,52.5,30.19,SSW,199,0.0,4.0,81,0.00,,CLR,0.00,146.00,VWS V14.01,2013-05-01 11:41:00,
2013-05-01 07:45:00,58.7,52.6,30.20,SSW,198,3.0,4.0,80,0.00,,OVC100,0.00,158.00,VWS V14.01,2013-05-01 11:45:00,
2013-05-01 07:46:00,58.7,52.2,30.20,SSW,198,3.0,4.0,79,0.00,,CLR,0.00,160.00,VWS V14.01,2013-05-01 11:46:00,
2013-05-01 07:50:00,59.2,52.7,30.20,SSW,197,2.0,5.0,79,0.00,,OVC100,0.00,174.00,VWS V14.01,2013-05-01 11:50:00,
2013-05-01 07:51:00,59.2,52.7,30.20,SSW,197,1.0,3.0,79,0.00,,CLR,0.00,176.00,VWS V14.01,2013-05-01 11:51:00,
2013-05-01 07:55:00,59.6,52.7,30.20,SSE,158,2.0,6.0,78,0.00,,OVC100,0.00,188.00,VWS V14.01,2013-05-01 11:55:00,
2013-05-01 07:56:00,59.6,52.7,30.20,SSE,158,2.0,4.0,78,0.00,,CLR,0.00,192.00,VWS V14.01,2013-05-01 11:56:00,
2013-05-01 08:00:00,59.9,53.0,30.20,SSE,152,5.0,6.0,78,0.00,,OVC100,0.00,204.00,VWS V14.01,2013-05-01 12:00:00,
2013-05-01 08:01:00,60.1,52.9,30.20,SE,142,3.0,6.0,77,0.00,,CLR,0.00,204.00,VWS V14.01,2013-05-01 12:01:00,
2013-05-01 08:05:00,60.4,53.2,30.20,SE,142,5.0,6.0,77,0.00,,OVC100,0.00,220.00,VWS V14.01,2013-05-01 12:05:00,
2013-05-01 08:06:00,60.5,53.3,30.20,SE,142,2.0,7.0,77,0.00,,CLR,0.00,220.00,VWS V14.01,2013-05-01 12:06:00,
2013-05-01 08:10:00,60.9,53.3,30.20,SE,144,3.0,7.0,76,0.00,,OVC100,0.00,234.00,VWS V14.01,2013-05-01 12:10:00,
2013-05-01 08:11:00,61.0,53.4,30.20,SE,144,3.0,4.0,76,0.00,,CLR,0.00,237.00,VWS V14.01,2013-05-01 12:11:00,
2013-05-01 08:15:00,61.3,53.3,30.20,SE,140,4.0,7.0,75,0.00,,OVC100,0.00,250.00,VWS V14.01,2013-05-01 12:15:00,
2013-05-01 08:16:00,61.3,53.3,30.20,SE,140,2.0,4.0,75,0.00,,CLR,0.00,253.00,VWS V14.01,2013-05-01 12:16:00,
2013-05-01 08:20:00,61.6,53.2,30.20,SSE,149,3.0,7.0,74,0.00,,OVC100,0.00,267.00,VWS V14.01,2013-05-01 12:20:00,
2013-05-01 08:21:00,61.8,53.4,30.20,SSE,149,5.0,5.0,74,0.00,,CLR,0.00,269.00,VWS V14.01,2013-05-01 12:21:00,
2013-05-01 08:25:00,62.1,53.7,30.20,SSE,149,4.0,6.0,74,0.00,,OVC100,0.00,283.00,VWS V14.01,2013-05-01 12:25:00,
2013-05-01 08:26:00,62.1,53.7,30.20,SSE,149,2.0,5.0,74,0.00,,CLR,0.00,287.00,VWS V14.01,2013-05-01 12:26:00,
2013-05-01 08:30:00,62.6,53.8,30.21,SE,139,3.0,7.0,73,0.00,,OVC100,0.00,301.00,VWS V14.01,2013-05-01 12:30:00,
2013-05-01 08:31:00,62.6,53.8,30.21,SSE,157,6.0,6.0,73,0.00,,CLR,0.00,301.00,VWS V14.01,2013-05-01 12:31:00,
2013-05-01 08:35:00,62.9,53.4,30.21,South,180,3.0,6.0,71,0.00,,OVC100,0.00,316.00,VWS V14.01,2013-05-01 12:35:00,
2013-05-01 08:36:00,62.9,53.4,30.21,SSE,154,6.0,8.0,71,0.00,,CLR,0.00,316.00,VWS V14.01,2013-05-01 12:36:00,
2013-05-01 08:40:00,63.4,53.8,30.21,SSE,148,5.0,8.0,71,0.00,,OVC100,0.00,330.00,VWS V14.01,2013-05-01 12:40:00,
2013-05-01 08:41:00,63.4,53.8,30.21,SSE,148,3.0,5.0,71,0.00,,CLR,0.00,332.00,VWS V14.01,2013-05-01 12:41:00,
2013-05-01 08:45:00,63.7,53.7,30.21,SE,141,8.0,8.0,70,0.00,,OVC100,0.00,346.00,VWS V14.01,2013-05-01 12:45:00,
2013-05-01 08:46:00,63.7,53.7,30.21,SSE,167,5.0,10.0,70,0.00,,CLR,0.00,350.00,VWS V14.01,2013-05-01 12:46:00,
2013-05-01 08:50:00,63.9,53.5,30.21,SSE,166,5.0,10.0,69,0.00,,OVC100,0.00,359.00,VWS V14.01,2013-05-01 12:50:00,
2013-05-01 08:51:00,64.0,53.6,30.21,SSE,151,5.0,6.0,69,0.00,,CLR,0.00,359.00,VWS V14.01,2013-05-01 12:51:00,
2013-05-01 08:55:00,64.3,53.9,30.21,South,173,5.0,8.0,69,0.00,,OVC100,0.00,369.00,VWS V14.01,2013-05-01 12:55:00,
2013-05-01 08:56:00,64.3,53.9,30.21,SW,217,5.0,7.0,69,0.00,,CLR,0.00,371.00,VWS V14.01,2013-05-01 12:56:00,
2013-05-01 09:00:00,64.5,53.7,30.22,SSE,149,6.0,11.0,68,0.00,,OVC100,0.00,376.00,VWS V14.01,2013-05-01 13:00:00,
2013-05-01 09:01:00,64.5,53.7,30.22,SSE,157,3.0,7.0,68,0.00,,CLR,0.00,378.00,VWS V14.01,2013-05-01 13:01:00,
2013-05-01 09:05:00,64.7,53.5,30.22,South,169,3.0,12.0,67,0.00,,OVC100,0.00,390.00,VWS V14.01,2013-05-01 13:05:00,
2013-05-01 09:06:00,64.7,53.5,30.22,SSE,150,5.0,7.0,67,0.00,,CLR,0.00,390.00,VWS V14.01,2013-05-01 13:06:00,
2013-05-01 09:10:00,65.0,53.8,30.22,South,177,4.0,11.0,67,0.00,,OVC100,0.00,422.00,VWS V14.01,2013-05-01 13:10:00,
2013-05-01 09:11:00,65.0,53.8,30.22,SW,227,1.0,7.0,67,0.00,,CLR,0.00,422.00,VWS V14.01,2013-05-01 13:11:00,
2013-05-01 09:15:00,65.2,54.0,30.22,SE,134,6.0,10.0,67,0.00,,OVC100,0.00,439.00,VWS V14.01,2013-05-01 13:15:00,
2013-05-01 09:16:00,65.3,54.1,30.22,SE,141,7.0,7.0,67,0.00,,CLR,0.00,441.00,VWS V14.01,2013-05-01 13:16:00,
2013-05-01 09:20:00,65.6,54.0,30.22,SSE,148,4.0,7.0,66,0.00,,OVC100,0.00,455.00,VWS V14.01,2013-05-01 13:20:00,
2013-05-01 09:21:00,65.8,54.1,30.22,SSE,159,3.0,7.0,66,0.00,,CLR,0.00,457.00,VWS V14.01,2013-05-01 13:21:00,
2013-05-01 09:26:00,66.0,53.9,30.22,South,189,2.0,6.0,65,0.00,,CLR,0.00,471.00,VWS V14.01,2013-05-01 13:26:00,
2013-05-01 09:30:00,66.4,54.3,30.22,SSW,203,3.0,7.0,65,0.00,,OVC100,0.00,483.00,VWS V14.01,2013-05-01 13:30:00,
2013-05-01 09:31:00,66.4,54.3,30.22,South,178,3.0,3.0,65,0.00,,CLR,0.00,487.00,VWS V14.01,2013-05-01 13:31:00,
2013-05-01 09:35:00,66.8,54.2,30.22,SE,130,3.0,7.0,64,0.00,,OVC100,0.00,499.00,VWS V14.01,2013-05-01 13:35:00,
2013-05-01 09:36:00,66.9,54.3,30.22,SE,130,1.0,3.0,64,0.00,,CLR,0.00,499.00,VWS V14.01,2013-05-01 13:36:00,
2013-05-01 09:40:00,67.6,55.0,30.22,SE,140,2.0,7.0,64,0.00,,OVC100,0.00,513.00,VWS V14.01,2013-05-01 13:40:00,
2013-05-01 09:41:00,67.6,55.0,30.22,SSW,209,4.0,6.0,64,0.00,,CLR,0.00,513.00,VWS V14.01,2013-05-01 13:41:00,
2013-05-01 09:45:00,67.9,54.8,30.22,SW,214,3.0,6.0,63,0.00,,OVC100,0.00,527.00,VWS V14.01,2013-05-01 13:45:00,
2013-05-01 09:46:00,68.1,55.0,30.22,SW,214,1.0,4.0,63,0.00,,CLR,0.00,527.00,VWS V14.01,2013-05-01 13:46:00,
2013-05-01 09:50:00,68.3,54.8,30.22,South,189,4.0,8.0,62,0.00,,OVC100,0.00,541.00,VWS V14.01,2013-05-01 13:50:00,
2013-05-01 09:51:00,68.3,54.8,30.22,South,182,2.0,5.0,62,0.00,,CLR,0.00,543.00,VWS V14.01,2013-05-01 13:51:00,
2013-05-01 09:55:00,68.6,55.1,30.22,SSW,209,6.0,8.0,62,0.00,,OVC100,0.00,555.00,VWS V14.01,2013-05-01 13:55:00,
2013-05-01 09:56:00,68.6,55.1,30.22,SSW,201,3.0,6.0,62,0.00,,CLR,0.00,557.00,VWS V14.01,2013-05-01 13:56:00,
2013-05-01 10:00:00,68.4,54.4,30.23,SSW,198,1.0,6.0,61,0.00,,OVC100,0.00,570.00,VWS V14.01,2013-05-01 14:00:00,
2013-05-01 10:01:00,68.6,55.1,30.23,SSW,198,2.0,3.0,62,0.00,,CLR,0.00,570.00,VWS V14.01,2013-05-01 14:01:00,
2013-05-01 10:05:00,69.1,55.1,30.23,South,169,4.0,4.0,61,0.00,,CLR,0.00,585.00,VWS V14.01,2013-05-01 14:05:00,
2013-05-01 10:10:00,69.3,55.3,30.23,SSE,151,5.0,6.0,61,0.00,,CLR,0.00,598.00,VWS V14.01,2013-05-01 14:10:00,
2013-05-01 10:15:00,69.3,54.4,30.23,South,181,4.0,4.0,59,0.00,,CLR,0.00,612.00,VWS V14.01,2013-05-01 14:15:00,
2013-05-01 10:20:00,69.6,55.1,30.23,SE,146,1.0,5.0,60,0.00,,CLR,0.00,624.00,VWS V14.01,2013-05-01 14:20:00,
2013-05-01 10:25:00,70.1,56.0,30.23,SSE,154,4.0,4.0,61,0.00,,CLR,0.00,636.00,VWS V14.01,2013-05-01 14:25:00,
2013-05-01 10:30:00,70.4,55.9,30.23,SSE,154,3.0,3.0,60,0.00,,CLR,0.00,650.00,VWS V14.01,2013-05-01 14:30:00,
2013-05-01 10:35:00,70.8,55.8,30.23,SSE,157,6.0,6.0,59,0.00,,CLR,0.00,663.00,VWS V14.01,2013-05-01 14:35:00,
2013-05-01 10:40:00,71.1,55.1,30.23,South,182,3.0,3.0,57,0.00,,CLR,0.00,673.00,VWS V14.01,2013-05-01 14:40:00,
2013-05-01 10:45:00,71.3,55.8,30.22,SSE,164,3.0,3.0,58,0.00,,CLR,0.00,686.00,VWS V14.01,2013-05-01 14:45:00,
2013-05-01 10:50:00,71.8,55.8,30.22,SE,137,2.0,6.0,57,0.00,,CLR,0.00,698.00,VWS V14.01,2013-05-01 14:50:00,
2013-05-01 10:55:00,72.3,56.2,30.22,South,182,5.0,5.0,57,0.00,,CLR,0.00,710.00,VWS V14.01,2013-05-01 14:55:00,
2013-05-01 11:00:00,72.3,55.2,30.22,SSE,161,3.0,3.0,55,0.00,,CLR,0.00,721.00,VWS V14.01,2013-05-01 15:00:00,
2013-05-01 11:05:00,73.0,56.4,30.22,SE,131,1.0,2.0,56,0.00,,CLR,0.00,733.00,VWS V14.01,2013-05-01 15:05:00,
2013-05-01 11:10:00,73.5,55.3,30.22,South,171,6.0,6.0,53,0.00,,CLR,0.00,744.00,VWS V14.01,2013-05-01 15:10:00,
2013-05-01 11:15:00,73.3,56.2,30.22,SSE,157,5.0,5.0,55,0.00,,CLR,0.00,749.00,VWS V14.01,2013-05-01 15:15:00,
2013-05-01 11:20:00,73.7,56.0,30.22,SE,139,2.0,3.0,54,0.00,,CLR,0.00,758.00,VWS V14.01,2013-05-01 15:20:00,
2013-05-01 11:25:00,74.2,56.0,30.22,South,169,4.0,5.0,53,0.00,,CLR,0.00,766.00,VWS V14.01,2013-05-01 15:25:00,
2013-05-01 11:30:00,74.4,55.7,30.22,SE,136,2.0,5.0,52,0.00,,CLR,0.00,775.00,VWS V14.01,2013-05-01 15:30:00,
2013-05-01 11:35:00,74.6,55.3,30.22,SSE,149,2.0,3.0,51,0.00,,CLR,0.00,782.00,VWS V14.01,2013-05-01 15:35:00,
2013-05-01 11:40:00,74.7,55.9,30.22,SE,132,2.0,3.0,52,0.00,,CLR,0.00,791.00,VWS V14.01,2013-05-01 15:40:00,
2013-05-01 11:45:00,75.1,55.8,30.22,ESE,123,3.0,4.0,51,0.00,,CLR,0.00,795.00,VWS V14.01,2013-05-01 15:45:00,
2013-05-01 11:50:00,75.8,56.9,30.22,ESE,121,3.0,3.0,52,0.00,,CLR,0.00,805.00,VWS V14.01,2013-05-01 15:50:00,
2013-05-01 11:55:00,76.0,55.5,30.22,ESE,119,9.0,9.0,49,0.00,,CLR,0.00,812.00,VWS V14.01,2013-05-01 15:55:00,
2013-05-01 12:00:00,76.1,55.0,30.22,SE,137,4.0,6.0,48,0.00,,CLR,0.00,819.00,VWS V14.01,2013-05-01 16:00:00,
2013-05-01 12:05:00,76.7,56.1,30.22,SE,130,8.0,8.0,49,0.00,,CLR,0.00,828.00,VWS V14.01,2013-05-01 16:05:00,
2013-05-01 12:10:00,76.5,55.4,30.22,SE,126,3.0,3.0,48,0.00,,CLR,0.00,830.00,VWS V14.01,2013-05-01 16:10:00,
2013-05-01 12:15:00,76.8,55.7,30.22,SE,131,6.0,7.0,48,0.00,,CLR,0.00,837.00,VWS V14.01,2013-05-01 16:15:00,
2013-05-01 12:20:00,77.0,54.7,30.22,SE,128,0.0,1.0,46,0.00,,CLR,0.00,842.00,VWS V14.01,2013-05-01 16:20:00,
2013-05-01 12:25:00,77.0,54.1,30.22,SSE,148,3.0,3.0,45,0.00,,CLR,0.00,849.00,VWS V14.01,2013-05-01 16:25:00,
2013-05-01 12:30:00,77.4,55.0,30.22,SSE,155,1.0,3.0,46,0.00,,CLR,0.00,851.00,VWS V14.01,2013-05-01 16:30:00,
2013-05-01 12:35:00,77.7,55.3,30.22,ESE,113,1.0,2.0,46,0.00,,CLR,0.00,858.00,VWS V14.01,2013-05-01 16:35:00,
2013-05-01 12:40:00,77.7,54.7,30.22,SSE,157,1.0,3.0,45,0.00,,CLR,0.00,858.00,VWS V14.01,2013-05-01 16:40:00,
2013-05-01 12:45:00,77.7,55.9,30.22,SE,134,3.0,5.0,47,0.00,,CLR,0.00,863.00,VWS V14.01,2013-05-01 16:45:00,
2013-05-01 12:50:00,78.1,55.7,30.22,SE,127,5.0,8.0,46,0.00,,CLR,0.00,863.00,VWS V14.01,2013-05-01 16:50:00,
2013-05-01 12:55:00,78.5,56.6,30.22,ENE,76,4.0,5.0,47,0.00,,CLR,0.00,868.00,VWS V14.01,2013-05-01 16:55:00,
2013-05-01 13:00:00,78.5,56.6,30.21,SE,146,0.0,3.0,47,0.00,,CLR,0.00,870.00,VWS V14.01,2013-05-01 17:00:00,
2013-05-01 13:05:00,78.8,56.9,30.21,SE,142,6.0,6.0,47,0.00,,CLR,0.00,875.00,VWS V14.01,2013-05-01 17:05:00,
2013-05-01 13:10:00,78.8,55.1,30.21,ESE,119,8.0,10.0,44,0.00,,CLR,0.00,877.00,VWS V14.01,2013-05-01 17:10:00,
2013-05-01 13:15:00,79.0,55.9,30.21,SE,124,7.0,7.0,45,0.00,,CLR,0.00,881.00,VWS V14.01,2013-05-01 17:15:00,
2013-05-01 13:20:00,79.0,54.6,30.21,SSE,148,3.0,3.0,43,0.00,,CLR,0.00,882.00,VWS V14.01,2013-05-01 17:20:00,
2013-05-01 13:25:00,78.8,53.8,30.21,ESE,111,2.0,2.0,42,0.00,,CLR,0.00,882.00,VWS V14.01,2013-05-01 17:25:00,
2013-05-01 13:30:00,79.0,54.0,30.21,East,84,6.0,6.0,42,0.00,,CLR,0.00,886.00,VWS V14.01,2013-05-01 17:30:00,
2013-05-01 13:35:00,79.0,52.6,30.21,SSE,149,3.0,3.0,40,0.00,,CLR,0.00,888.00,VWS V14.01,2013-05-01 17:35:00,
2013-05-01 13:40:00,79.2,53.5,30.21,East,101,6.0,10.0,41,0.00,,CLR,0.00,884.00,VWS V14.01,2013-05-01 17:40:00,
2013-05-01 13:45:00,79.2,53.5,30.20,SE,124,0.0,10.0,41,0.00,,CLR,0.00,882.00,VWS V14.01,2013-05-01 17:45:00,
2013-05-01 13:50:00,79.9,54.8,30.20,ESE,119,1.0,2.0,42,0.00,,CLR,0.00,882.00,VWS V14.01,2013-05-01 17:50:00,
2013-05-01 13:55:00,79.9,53.5,30.20,SE,132,5.0,5.0,40,0.00,,CLR,0.00,882.00,VWS V14.01,2013-05-01 17:55:00,
2013-05-01 14:00:00,80.1,53.6,30.20,SE,130,6.0,9.0,40,0.00,,CLR,0.00,874.00,VWS V14.01,2013-05-01 18:00:00,
2013-05-01 14:05:00,79.6,53.8,30.20,SE,146,1.0,3.0,41,0.00,,CLR,0.00,882.00,VWS V14.01,2013-05-01 18:05:00,
2013-05-01 14:10:00,79.9,56.1,30.20,SE,140,6.0,6.0,44,0.00,,CLR,0.00,877.00,VWS V14.01,2013-05-01 18:10:00,
2013-05-01 14:15:00,79.8,54.0,30.20,SE,135,4.0,6.0,41,0.00,,CLR,0.00,870.00,VWS V14.01,2013-05-01 18:15:00,
2013-05-01 14:20:00,79.8,53.4,30.20,East,87,1.0,14.0,40,0.00,,CLR,0.00,861.00,VWS V14.01,2013-05-01 18:20:00,
2013-05-01 14:25:00,80.1,52.9,30.20,ESE,108,10.0,12.0,39,0.00,,CLR,0.00,863.00,VWS V14.01,2013-05-01 18:25:00,
2013-05-01 14:30:00,79.9,53.5,30.20,SE,126,2.0,2.0,40,0.00,,CLR,0.00,865.00,VWS V14.01,2013-05-01 18:30:00,
2013-05-01 14:35:00,80.3,53.1,30.20,East,101,7.0,11.0,39,0.00,,CLR,0.00,867.00,VWS V14.01,2013-05-01 18:35:00,
2013-05-01 14:40:00,80.7,53.5,30.20,ESE,109,4.0,10.0,39,0.00,,CLR,0.00,842.00,VWS V14.01,2013-05-01 18:40:00,
2013-05-01 14:45:00,80.5,53.3,30.20,SE,131,7.0,11.0,39,0.00,,CLR,0.00,865.00,VWS V14.01,2013-05-01 18:45:00,
2013-05-01 14:50:00,80.7,54.2,30.20,SSE,155,6.0,11.0,40,0.00,,CLR,0.00,856.00,VWS V14.01,2013-05-01 18:50:00,
2013-05-01 14:55:00,80.7,52.8,30.20,SSE,159,4.0,11.0,38,0.00,,CLR,0.00,872.00,VWS V14.01,2013-05-01 18:55:00,
2013-05-01 15:00:00,80.7,52.8,30.20,SE,131,9.0,13.0,38,0.00,,CLR,0.00,870.00,VWS V14.01,2013-05-01 19:00:00,
2013-05-01 15:05:00,80.9,52.2,30.20,SE,141,4.0,10.0,37,0.00,,CLR,0.00,874.00,VWS V14.01,2013-05-01 19:05:00,
2013-05-01 15:10:00,80.9,53.7,30.20,SE,132,9.0,10.0,39,0.00,,CLR,0.00,863.00,VWS V14.01,2013-05-01 19:10:00,
2013-05-01 15:15:00,80.5,53.3,30.20,SSE,147,4.0,10.0,39,0.00,,CLR,0.00,849.00,VWS V14.01,2013-05-01 19:15:00,
2013-05-01 15:20:00,80.9,55.0,30.20,SE,146,8.0,8.0,41,0.00,,CLR,0.00,782.00,VWS V14.01,2013-05-01 19:20:00,
2013-05-01 15:25:00,80.7,53.5,30.20,SE,140,5.0,11.0,39,0.00,,CLR,0.00,824.00,VWS V14.01,2013-05-01 19:25:00,
2013-05-01 15:30:00,80.9,52.9,30.20,ESE,104,4.0,13.0,38,0.00,,CLR,0.00,773.00,VWS V14.01,2013-05-01 19:30:00,
2013-05-01 15:35:00,80.9,52.2,30.20,ESE,106,8.0,13.0,37,0.00,,CLR,0.00,772.00,VWS V14.01,2013-05-01 19:35:00,
2013-05-01 15:40:00,80.9,52.2,30.20,ESE,117,4.0,10.0,37,0.00,,CLR,0.00,761.00,VWS V14.01,2013-05-01 19:40:00,
2013-05-01 15:45:00,81.1,52.4,30.20,East,96,11.0,15.0,37,0.00,,CLR,0.00,747.00,VWS V14.01,2013-05-01 19:45:00,
2013-05-01 15:50:00,80.9,51.5,30.20,SSE,161,4.0,13.0,36,0.00,,CLR,0.00,738.00,VWS V14.01,2013-05-01 19:50:00,
2013-05-01 15:55:00,81.1,51.7,30.20,ESE,117,4.0,9.0,36,0.00,,CLR,0.00,724.00,VWS V14.01,2013-05-01 19:55:00,
2013-05-01 16:00:00,81.2,50.2,30.20,ENE,78,3.0,11.0,34,0.00,,CLR,0.00,717.00,VWS V14.01,2013-05-01 20:00:00,
2013-05-01 16:05:00,81.2,51.0,30.20,East,97,11.0,16.0,35,0.00,,CLR,0.00,705.00,VWS V14.01,2013-05-01 20:05:00,
2013-05-01 16:10:00,81.2,51.0,30.20,SE,134,3.0,9.0,35,0.00,,CLR,0.00,694.00,VWS V14.01,2013-05-01 20:10:00,
2013-05-01 16:15:00,80.9,55.0,30.20,East,82,7.0,13.0,41,0.00,,CLR,0.00,682.00,VWS V14.01,2013-05-01 20:15:00,
2013-05-01 16:20:00,80.3,55.1,30.20,ENE,67,9.0,15.0,42,0.00,,CLR,0.00,666.00,VWS V14.01,2013-05-01 20:20:00,
2013-05-01 16:25:00,80.1,56.2,30.20,East,80,8.0,18.0,44,0.00,,CLR,0.00,656.00,VWS V14.01,2013-05-01 20:25:00,
2013-05-01 16:30:00,79.6,55.8,30.20,ENE,61,7.0,14.0,44,0.00,,CLR,0.00,638.00,VWS V14.01,2013-05-01 20:30:00,
2013-05-01 16:35:00,79.2,55.4,30.20,NE,49,10.0,14.0,44,0.00,,CLR,0.00,629.00,VWS V14.01,2013-05-01 20:35:00,
2013-05-01 16:40:00,79.4,55.6,30.20,ENE,74,5.0,12.0,44,0.00,,CLR,0.00,617.00,VWS V14.01,2013-05-01 20:40:00,
2013-05-01 16:45:00,79.2,56.7,30.20,ENE,63,8.0,17.0,46,0.00,,CLR,0.00,603.00,VWS V14.01,2013-05-01 20:45:00,
2013-05-01 16:50:00,78.6,55.5,30.20,NE,53,10.0,16.0,45,0.00,,CLR,0.00,589.00,VWS V14.01,2013-05-01 20:50:00,
2013-05-01 16:55:00,78.1,56.8,30.20,ENE,58,3.0,12.0,48,0.00,,CLR,0.00,573.00,VWS V14.01,2013-05-01 20:55:00,
2013-05-01 17:00:00,77.7,57.0,30.20,ENE,57,8.0,12.0,49,0.00,,CLR,0.00,561.00,VWS V14.01,2013-05-01 21:00:00,
2013-05-01 17:05:00,77.7,56.5,30.20,NE,53,5.0,16.0,48,0.00,,CLR,0.00,547.00,VWS V14.01,2013-05-01 21:05:00,
2013-05-01 17:10:00,77.6,56.4,30.20,East,84,3.0,14.0,48,0.00,,CLR,0.00,533.00,VWS V14.01,2013-05-01 21:10:00,
2013-05-01 17:15:00,77.4,56.2,30.20,NE,56,8.0,17.0,48,0.00,,CLR,0.00,519.00,VWS V14.01,2013-05-01 21:15:00,
2013-05-01 17:20:00,77.0,56.4,30.20,ESE,111,7.0,13.0,49,0.00,,CLR,0.00,504.00,VWS V14.01,2013-05-01 21:20:00,
2013-05-01 17:25:00,76.7,55.5,30.20,East,87,14.0,14.0,48,0.00,,CLR,0.00,489.00,VWS V14.01,2013-05-01 21:25:00,
2013-05-01 17:30:00,76.5,55.4,30.20,East,80,6.0,14.0,48,0.00,,CLR,0.00,473.00,VWS V14.01,2013-05-01 21:30:00,
2013-05-01 17:35:00,76.1,55.6,30.20,ENE,64,4.0,13.0,49,0.00,,CLR,0.00,459.00,VWS V14.01,2013-05-01 21:35:00,
2013-05-01 17:40:00,76.0,55.5,30.20,ENE,63,8.0,12.0,49,0.00,,CLR,0.00,443.00,VWS V14.01,2013-05-01 21:40:00,
2013-05-01 17:45:00,75.8,55.9,30.21,East,98,11.0,14.0,50,0.00,,CLR,0.00,429.00,VWS V14.01,2013-05-01 21:45:00,
2013-05-01 17:50:00,75.4,55.5,30.21,ENE,70,4.0,13.0,50,0.00,,CLR,0.00,413.00,VWS V14.01,2013-05-01 21:50:00,
2013-05-01 17:55:00,75.3,55.9,30.21,East,99,6.0,10.0,51,0.00,,CLR,0.00,397.00,VWS V14.01,2013-05-01 21:55:00,
2013-05-01 18:00:00,74.9,56.1,30.21,East,96,5.0,13.0,52,0.00,,CLR,0.00,381.00,VWS V14.01,2013-05-01 22:00:00,
2013-05-01 18:05:00,74.4,56.7,30.21,East,88,3.0,13.0,54,0.00,,CLR,0.00,366.00,VWS V14.01,2013-05-01 22:05:00,
2013-05-01 18:10:00,73.7,55.5,30.21,ENE,63,7.0,12.0,53,0.00,,CLR,0.00,352.00,VWS V14.01,2013-05-01 22:10:00,
2013-05-01 18:15:00,73.2,56.1,30.22,ENE,73,7.0,15.0,55,0.00,,CLR,0.00,334.00,VWS V14.01,2013-05-01 22:15:00,
2013-05-01 18:20:00,72.3,55.2,30.22,NE,56,10.0,14.0,55,0.00,,CLR,0.00,318.00,VWS V14.01,2013-05-01 22:20:00,
2013-05-01 18:25:00,71.5,55.5,30.22,ENE,60,4.0,13.0,57,0.00,,CLR,0.00,302.00,VWS V14.01,2013-05-01 22:25:00,
2013-05-01 18:30:00,70.4,54.9,30.22,ENE,69,5.0,13.0,58,0.00,,CLR,0.00,287.00,VWS V14.01,2013-05-01 22:30:00,
2013-05-01 18:35:00,69.8,55.3,30.22,ENE,72,7.0,11.0,60,0.00,,CLR,0.00,271.00,VWS V14.01,2013-05-01 22:35:00,
2013-05-01 18:40:00,69.3,54.8,30.22,East,86,5.0,12.0,60,0.00,,CLR,0.00,258.00,VWS V14.01,2013-05-01 22:40:00,
2013-05-01 18:45:00,68.9,54.0,30.22,ENE,68,10.0,17.0,59,0.00,,CLR,0.00,243.00,VWS V14.01,2013-05-01 22:45:00,
2013-05-01 18:50:00,68.6,54.2,30.22,East,97,5.0,14.0,60,0.00,,CLR,0.00,227.00,VWS V14.01,2013-05-01 22:50:00,
2013-05-01 18:55:00,68.6,53.7,30.22,ESE,105,7.0,11.0,59,0.00,,CLR,0.00,211.00,VWS V14.01,2013-05-01 22:55:00,
2013-05-01 19:00:00,68.4,54.0,30.22,ENE,76,10.0,11.0,60,0.00,,CLR,0.00,195.00,VWS V14.01,2013-05-01 23:00:00,
2013-05-01 19:05:00,68.1,53.2,30.22,NE,40,8.0,13.0,59,0.00,,CLR,0.00,181.00,VWS V14.01,2013-05-01 23:05:00,
2013-05-01 19:10:00,67.8,53.4,30.22,ENE,63,7.0,11.0,60,0.00,,CLR,0.00,167.00,VWS V14.01,2013-05-01 23:10:00,
2013-05-01 19:15:00,67.4,53.0,30.22,ESE,105,7.0,10.0,60,0.00,,CLR,0.00,153.00,VWS V14.01,2013-05-01 23:15:00,
2013-05-01 19:20:00,67.3,53.4,30.22,ENE,62,7.0,13.0,61,0.00,,CLR,0.00,139.00,VWS V14.01,2013-05-01 23:20:00,
2013-05-01 19:25:00,67.1,53.2,30.22,ENE,57,4.0,11.0,61,0.00,,CLR,0.00,125.00,VWS V14.01,2013-05-01 23:25:00,
2013-05-01 19:30:00,66.9,53.0,30.22,ENE,67,7.0,10.0,61,0.00,,CLR,0.00,81.00,VWS V14.01,2013-05-01 23:30:00,
2013-05-01 19:34:00,66.6,53.2,30.22,NE,51,5.0,10.0,62,0.00,,CLR,0.00,40.00,VWS V14.01,2013-05-01 23:34:00,
2013-05-01 19:35:00,66.6,53.2,30.22,ENE,64,8.0,11.0,62,0.00,,OVC100,0.00,40.00,VWS V14.01,2013-05-01 23:35:00,
2013-05-01 19:39:00,66.4,53.0,30.22,ENE,69,3.0,11.0,62,0.00,,CLR,0.00,37.00,VWS V14.01,2013-05-01 23:39:00,
2013-05-01 19:40:00,66.4,53.0,30.22,ENE,74,8.0,11.0,62,0.00,,OVC100,0.00,37.00,VWS V14.01,2013-05-01 23:40:00,
2013-05-01 19:44:00,66.1,52.7,30.22,ENE,67,8.0,11.0,62,0.00,,CLR,0.00,33.00,VWS V14.01,2013-05-01 23:44:00,
2013-05-01 19:45:00,66.1,52.7,30.22,East,85,7.0,11.0,62,0.00,,OVC100,0.00,33.00,VWS V14.01,2013-05-01 23:45:00,
2013-05-01 19:49:00,65.8,52.9,30.22,ENE,77,5.0,10.0,63,0.00,,CLR,0.00,30.00,VWS V14.01,2013-05-01 23:49:00,
2013-05-01 19:50:00,65.8,52.9,30.22,East,90,9.0,10.0,63,0.00,,OVC100,0.00,30.00,VWS V14.01,2013-05-01 23:50:00,
2013-05-01 19:54:00,65.3,52.4,30.22,ESE,105,7.0,13.0,63,0.00,,CLR,0.00,28.00,VWS V14.01,2013-05-01 23:54:00,
2013-05-01 19:55:00,65.3,52.4,30.22,ESE,105,4.0,13.0,63,0.00,,OVC100,0.00,30.00,VWS V14.01,2013-05-01 23:55:00,
2013-05-01 19:59:00,65.0,52.5,30.22,East,82,6.0,10.0,64,0.00,,CLR,0.00,40.00,VWS V14.01,2013-05-01 23:59:00,
2013-05-01 20:00:00,64.8,52.3,30.22,East,88,2.0,10.0,64,0.00,,OVC100,0.00,39.00,VWS V14.01,2013-05-02 00:00:00,
2013-05-01 20:04:00,64.3,52.3,30.22,East,93,9.0,12.0,65,0.00,,CLR,0.00,32.00,VWS V14.01,2013-05-02 00:04:00,
2013-05-01 20:05:00,64.3,52.3,30.22,East,86,6.0,12.0,65,0.00,,OVC100,0.00,30.00,VWS V14.01,2013-05-02 00:05:00,
2013-05-01 20:09:00,63.9,52.3,30.22,ENE,64,9.0,13.0,66,0.00,,CLR,0.00,21.00,VWS V14.01,2013-05-02 00:09:00,
2013-05-01 20:10:00,63.9,52.3,30.22,East,89,7.0,13.0,66,0.00,,OVC100,0.00,21.00,VWS V14.01,2013-05-02 00:10:00,
2013-05-01 20:14:00,63.4,52.3,30.22,East,90,6.0,10.0,67,0.00,,CLR,0.00,14.00,VWS V14.01,2013-05-02 00:14:00,
2013-05-01 20:15:00,63.4,52.3,30.22,East,79,7.0,10.0,67,0.00,,OVC100,0.00,14.00,VWS V14.01,2013-05-02 00:15:00,
2013-05-01 20:19:00,63.1,52.4,30.22,ENE,77,5.0,9.0,68,0.00,,CLR,0.00,12.00,VWS V14.01,2013-05-02 00:19:00,
2013-05-01 20:20:00,62.9,52.2,30.22,East,92,7.0,9.0,68,0.00,,OVC100,0.00,11.00,VWS V14.01,2013-05-02 00:20:00,
2013-05-01 20:24:00,62.6,52.3,30.22,ENE,67,4.0,8.0,69,0.00,,CLR,0.00,9.00,VWS V14.01,2013-05-02 00:24:00,
2013-05-01 20:25:00,62.6,52.3,30.22,East,83,7.0,8.0,69,0.00,,OVC100,0.00,7.00,VWS V14.01,2013-05-02 00:25:00,
2013-05-01 20:29:00,62.4,52.5,30.22,East,86,5.0,10.0,70,0.00,,CLR,0.00,5.00,VWS V14.01,2013-05-02 00:29:00,
2013-05-01 20:30:00,62.3,52.4,30.22,East,92,6.0,10.0,70,0.00,,OVC100,0.00,5.00,VWS V14.01,2013-05-02 00:30:00,
2013-05-01 20:34:00,62.0,52.1,30.22,ENE,66,1.0,10.0,70,0.00,,CLR,0.00,0.00,VWS V14.01,2013-05-02 00:34:00,
2013-05-01 20:35:00,62.0,52.1,30.22,East,90,5.0,10.0,70,0.00,,OVC100,0.00,0.00,VWS V14.01,2013-05-02 00:35:00,
2013-05-01 20:39:00,61.8,51.9,30.22,ENE,78,3.0,10.0,70,0.00,,CLR,0.00,0.00,VWS V14.01,2013-05-02 00:39:00,
2013-05-01 20:40:00,61.6,51.7,30.22,ESE,104,4.0,10.0,70,0.00,,OVC100,0.00,0.00,VWS V14.01,2013-05-02 00:40:00,
2013-05-01 20:44:00,61.6,51.7,30.23,ENE,63,8.0,10.0,70,0.00,,CLR,0.00,0.00,VWS V14.01,2013-05-02 00:44:00,
2013-05-01 20:45:00,61.5,51.6,30.23,East,90,9.0,10.0,70,0.00,,OVC100,0.00,0.00,VWS V14.01,2013-05-02 00:45:00,
2013-05-01 20:49:00,61.3,51.8,30.23,ENE,63,7.0,11.0,71,0.00,,CLR,0.00,0.00,VWS V14.01,2013-05-02 00:49:00,
2013-05-01 20:50:00,61.3,51.8,30.23,ENE,69,7.0,11.0,71,0.00,,OVC100,0.00,0.00,VWS V14.01,2013-05-02 00:50:00,
2013-05-01 20:54:00,61.2,51.7,30.23,East,82,6.0,9.0,71,0.00,,CLR,0.00,0.00,VWS V14.01,2013-05-02 00:54:00,
2013-05-01 20:55:00,61.2,51.7,30.23,East,82,2.0,9.0,71,0.00,,OVC100,0.00,0.00,VWS V14.01,2013-05-02 00:55:00,
2013-05-01 20:59:00,61.0,51.5,30.23,ENE,68,5.0,10.0,71,0.00,,CLR,0.00,0.00,VWS V14.01,2013-05-02 00:59:00,
2013-05-01 21:00:00,61.0,51.5,30.23,East,84,5.0,10.0,71,0.00,,OVC100,0.00,0.00,VWS V14.01,2013-05-02 01:00:00,
2013-05-01 21:04:00,60.9,51.5,30.23,ENE,73,7.0,10.0,71,0.00,,CLR,0.00,0.00,VWS V14.01,2013-05-02 01:04:00,
2013-05-01 21:05:00,60.9,51.5,30.23,East,84,6.0,10.0,71,0.00,,OVC100,0.00,0.00,VWS V14.01,2013-05-02 01:05:00,
2013-05-01 21:09:00,60.7,50.9,30.23,ENE,76,5.0,9.0,70,0.00,,CLR,0.00,0.00,VWS V14.01,2013-05-02 01:09:00,
2013-05-01 21:10:00,60.7,50.9,30.23,East,85,3.0,12.0,70,0.00,,OVC100,0.00,0.00,VWS V14.01,2013-05-02 01:10:00,
2013-05-01 21:14:00,60.5,50.7,30.23,East,80,8.0,10.0,70,0.00,,CLR,0.00,0.00,VWS V14.01,2013-05-02 01:14:00,
2013-05-01 21:15:00,60.4,50.6,30.23,East,79,6.0,10.0,70,0.00,,OVC100,0.00,0.00,VWS V14.01,2013-05-02 01:15:00,
2013-05-01 21:19:00,60.4,50.6,30.23,East,82,5.0,10.0,70,0.00,,CLR,0.00,0.00,VWS V14.01,2013-05-02 01:19:00,
2013-05-01 21:20:00,60.2,50.4,30.23,East,101,5.0,10.0,70,0.00,,OVC100,0.00,0.00,VWS V14.01,2013-05-02 01:20:00,
2013-05-01 21:24:00,60.1,50.7,30.23,ESE,111,7.0,10.0,71,0.00,,CLR,0.00,0.00,VWS V14.01,2013-05-02 01:24:00,
2013-05-01 21:25:00,60.1,50.7,30.23,East,90,6.0,10.0,71,0.00,,OVC100,0.00,0.00,VWS V14.01,2013-05-02 01:25:00,
2013-05-01 21:29:00,60.1,50.7,30.23,ENE,60,3.0,8.0,71,0.00,,CLR,0.00,0.00,VWS V14.01,2013-05-02 01:29:00,
2013-05-01 21:30:00,59.9,50.5,30.23,ENE,60,5.0,8.0,71,0.00,,OVC100,0.00,0.00,VWS V14.01,2013-05-02 01:30:00,
2013-05-01 21:34:00,59.8,50.4,30.23,ENE,75,3.0,5.0,71,0.00,,CLR,0.00,0.00,VWS V14.01,2013-05-02 01:34:00,
2013-05-01 21:35:00,59.8,50.4,30.23,ENE,75,7.0,7.0,71,0.00,,OVC100,0.00,0.00,VWS V14.01,2013-05-02 01:35:00,
2013-05-01 21:39:00,59.6,50.6,30.23,ENE,69,4.0,9.0,72,0.00,,CLR,0.00,0.00,VWS V14.01,2013-05-02 01:39:00,
2013-05-01 21:40:00,59.6,50.6,30.23,ENE,69,8.0,9.0,72,0.00,,OVC100,0.00,0.00,VWS V14.01,2013-05-02 01:40:00,
2013-05-01 21:44:00,59.5,50.8,30.24,ENE,69,2.0,8.0,73,0.00,,CLR,0.00,0.00,VWS V14.01,2013-05-02 01:44:00,
2013-05-01 21:45:00,59.3,50.7,30.24,ENE,69,2.0,8.0,73,0.00,,OVC100,0.00,0.00,VWS V14.01,2013-05-02 01:45:00,
2013-05-01 21:49:00,59.2,50.9,30.24,ENE,71,4.0,5.0,74,0.00,,CLR,0.00,0.00,VWS V14.01,2013-05-02 01:49:00,
2013-05-01 21:50:00,59.2,50.9,30.24,ENE,71,1.0,5.0,74,0.00,,OVC100,0.00,0.00,VWS V14.01,2013-05-02 01:50:00,
2013-05-01 21:54:00,59.0,50.7,30.24,ENE,71,1.0,5.0,74,0.00,,CLR,0.00,0.00,VWS V14.01,2013-05-02 01:54:00,
2013-05-01 21:55:00,59.0,50.7,30.24,ENE,71,1.0,5.0,74,0.00,,OVC100,0.00,0.00,VWS V14.01,2013-05-02 01:55:00,
2013-05-01 21:59:00,58.9,50.6,30.24,ENE,71,2.0,4.0,74,0.00,,CLR,0.00,0.00,VWS V14.01,2013-05-02 01:59:00,
2013-05-01 22:00:00,58.9,50.6,30.24,ENE,71,2.0,4.0,74,0.00,,OVC100,0.00,0.00,VWS V14.01,2013-05-02 02:00:00,
2013-05-01 22:04:00,58.9,51.0,30.24,ENE,71,1.0,3.0,75,0.00,,CLR,0.00,0.00,VWS V14.01,2013-05-02 02:04:00,
2013-05-01 22:05:00,58.9,51.0,30.24,ENE,71,3.0,3.0,75,0.00,,OVC100,0.00,0.00,VWS V14.01,2013-05-02 02:05:00,
2013-05-01 22:09:00,58.9,51.0,30.24,ENE,71,1.0,3.0,75,0.00,,CLR,0.00,0.00,VWS V14.01,2013-05-02 02:09:00,
2013-05-01 22:10:00,58.9,51.0,30.24,ENE,71,0.0,3.0,75,0.00,,OVC100,0.00,0.00,VWS V14.01,2013-05-02 02:10:00,
2013-05-01 22:14:00,58.7,51.2,30.25,ENE,71,0.0,2.0,76,0.00,,CLR,0.00,0.00,VWS V14.01,2013-05-02 02:14:00,
2013-05-01 22:15:00,58.7,51.2,30.25,ENE,71,0.0,2.0,76,0.00,,OVC100,0.00,0.00,VWS V14.01,2013-05-02 02:15:00,
2013-05-01 22:19:00,58.6,51.1,30.25,ENE,71,0.0,2.0,76,0.00,,CLR,0.00,0.00,VWS V14.01,2013-05-02 02:19:00,
2013-05-01 22:20:00,58.6,51.1,30.25,ENE,71,0.0,2.0,76,0.00,,OVC100,0.00,0.00,VWS V14.01,2013-05-02 02:20:00,
2013-05-01 22:24:00,58.4,50.9,30.25,ENE,71,2.0,3.0,76,0.00,,CLR,0.00,0.00,VWS V14.01,2013-05-02 02:24:00,
2013-05-01 22:25:00,58.4,51.2,30.25,ENE,71,1.0,3.0,77,0.00,,OVC100,0.00,0.00,VWS V14.01,2013-05-02 02:25:00,
2013-05-01 22:29:00,58.3,51.1,30.25,ENE,71,1.0,3.0,77,0.00,,CLR,0.00,0.00,VWS V14.01,2013-05-02 02:29:00,
2013-05-01 22:30:00,58.3,51.1,30.25,ENE,71,0.0,3.0,77,0.00,,OVC100,0.00,0.00,VWS V14.01,2013-05-02 02:30:00,
2013-05-01 22:34:00,58.1,50.9,30.25,ENE,71,0.0,2.0,77,0.00,,CLR,0.00,0.00,VWS V14.01,2013-05-02 02:34:00,
2013-05-01 22:35:00,58.1,51.3,30.25,ENE,71,0.0,2.0,78,0.00,,OVC100,0.00,0.00,VWS V14.01,2013-05-02 02:35:00,
2013-05-01 22:39:00,58.0,51.2,30.25,ENE,71,0.0,2.0,78,0.00,,CLR,0.00,0.00,VWS V14.01,2013-05-02 02:39:00,
2013-05-01 22:40:00,58.0,51.2,30.25,ENE,71,0.0,2.0,78,0.00,,OVC100,0.00,0.00,VWS V14.01,2013-05-02 02:40:00,
2013-05-01 22:44:00,57.8,51.3,30.25,ENE,71,0.0,2.0,79,0.00,,CLR,0.00,0.00,VWS V14.01,2013-05-02 02:44:00,
2013-05-01 22:45:00,57.8,51.3,30.25,ENE,71,0.0,2.0,79,0.00,,OVC100,0.00,0.00,VWS V14.01,2013-05-02 02:45:00,
2013-05-01 22:49:00,57.6,51.1,30.25,ENE,71,0.0,0.0,79,0.00,,CLR,0.00,0.00,VWS V14.01,2013-05-02 02:49:00,
2013-05-01 22:50:00,57.6,51.1,30.25,ENE,71,0.0,0.0,79,0.00,,OVC100,0.00,0.00,VWS V14.01,2013-05-02 02:50:00,
2013-05-01 22:54:00,57.6,51.1,30.25,ENE,71,0.0,2.0,79,0.00,,CLR,0.00,0.00,VWS V14.01,2013-05-02 02:54:00,
2013-05-01 22:55:00,57.6,51.1,30.25,ENE,71,0.0,2.0,79,0.00,,OVC100,0.00,0.00,VWS V14.01,2013-05-02 02:55:00,
2013-05-01 22:59:00,57.5,51.0,30.24,ENE,71,0.0,0.0,79,0.00,,CLR,0.00,0.00,VWS V14.01,2013-05-02 02:59:00,
2013-05-01 23:00:00,57.5,51.0,30.24,ENE,71,0.0,0.0,79,0.00,,OVC100,0.00,0.00,VWS V14.01,2013-05-02 03:00:00,
2013-05-01 23:04:00,57.5,51.0,30.24,ENE,71,0.0,0.0,79,0.00,,CLR,0.00,0.00,VWS V14.01,2013-05-02 03:04:00,
2013-05-01 23:05:00,57.5,51.0,30.24,ENE,71,0.0,0.0,79,0.00,,OVC100,0.00,0.00,VWS V14.01,2013-05-02 03:05:00,
2013-05-01 23:09:00,57.5,51.0,30.24,ENE,71,0.0,2.0,79,0.00,,CLR,0.00,0.00,VWS V14.01,2013-05-02 03:09:00,
2013-05-01 23:10:00,57.6,51.1,30.24,ENE,71,0.0,2.0,79,0.00,,OVC100,0.00,0.00,VWS V14.01,2013-05-02 03:10:00,
2013-05-01 23:14:00,57.6,50.8,30.24,ENE,71,1.0,2.0,78,0.00,,CLR,0.00,0.00,VWS V14.01,2013-05-02 03:14:00,
2013-05-01 23:15:00,57.6,50.8,30.24,ENE,71,1.0,3.0,78,0.00,,OVC100,0.00,0.00,VWS V14.01,2013-05-02 03:15:00,
2013-05-01 23:19:00,57.8,51.0,30.24,ENE,71,1.0,2.0,78,0.00,,CLR,0.00,0.00,VWS V14.01,2013-05-02 03:19:00,
2013-05-01 23:20:00,57.8,51.0,30.24,ENE,71,2.0,2.0,78,0.00,,OVC100,0.00,0.00,VWS V14.01,2013-05-02 03:20:00,
2013-05-01 23:24:00,57.8,50.7,30.24,ENE,71,2.0,3.0,77,0.00,,CLR,0.00,0.00,VWS V14.01,2013-05-02 03:24:00,
2013-05-01 23:25:00,58.0,50.8,30.24,ENE,71,1.0,3.0,77,0.00,,OVC100,0.00,0.00,VWS V14.01,2013-05-02 03:25:00,
2013-05-01 23:29:00,58.0,50.8,30.24,ENE,71,0.0,3.0,77,0.00,,CLR,0.00,0.00,VWS V14.01,2013-05-02 03:29:00,
2013-05-01 23:30:00,58.0,50.8,30.24,ENE,71,0.0,3.0,77,0.00,,OVC100,0.00,0.00,VWS V14.01,2013-05-02 03:30:00,
2013-05-01 23:34:00,57.6,50.5,30.24,ENE,71,0.0,1.0,77,0.00,,CLR,0.00,0.00,VWS V14.01,2013-05-02 03:34:00,
2013-05-01 23:35:00,57.5,50.7,30.24,ENE,71,1.0,1.0,78,0.00,,OVC100,0.00,0.00,VWS V14.01,2013-05-02 03:35:00,
2013-05-01 23:39:00,57.2,50.8,30.24,ENE,71,0.0,2.0,79,0.00,,CLR,0.00,0.00,VWS V14.01,2013-05-02 03:39:00,
2013-05-01 23:40:00,57.0,50.6,30.24,ENE,71,0.0,2.0,79,0.00,,OVC100,0.00,0.00,VWS V14.01,2013-05-02 03:40:00,
2013-05-01 23:44:00,56.6,50.5,30.24,ENE,71,0.0,2.0,80,0.00,,CLR,0.00,0.00,VWS V14.01,2013-05-02 03:44:00,
2013-05-01 23:45:00,56.5,50.4,30.24,ENE,71,0.0,2.0,80,0.00,,OVC100,0.00,0.00,VWS V14.01,2013-05-02 03:45:00,
2013-05-01 23:49:00,56.2,50.5,30.24,ENE,71,0.0,0.0,81,0.00,,CLR,0.00,0.00,VWS V14.01,2013-05-02 03:49:00,
2013-05-01 23:50:00,56.2,50.5,30.24,ENE,71,0.0,1.0,81,0.00,,OVC100,0.00,0.00,VWS V14.01,2013-05-02 03:50:00,
2013-05-01 23:54:00,55.9,50.2,30.24,ENE,71,0.0,2.0,81,0.00,,CLR,0.00,0.00,VWS V14.01,2013-05-02 03:54:00,
2013-05-01 23:55:00,55.9,50.2,30.24,ENE,71,0.0,2.0,81,0.00,,OVC100,0.00,0.00,VWS V14.01,2013-05-02 03:55:00,
2013-05-01 23:59:00,55.6,50.2,30.24,ENE,71,0.0,1.0,82,0.00,,CLR,0.00,0.00,VWS V14.01,2013-05-02 03:59:00,